Salina, KS

10:40 PM CST on November 17, 2017 (GMT -0600)
Salina Municipal

Weather History for KSLN - May, 2014

Change the Weather History Date:

Saturday, May 3, 2014

  Actual Average Record
Temperature  
Mean Temperature 65 °F 61 °F  
Max Temperature 86 °F 73 °F 91 °F (1959)
Min Temperature 44 °F 49 °F 29 °F (1976)
Degree Days  
Heating Degree Days 0 6  
Month to date heating degree days 24 18  
Since 1 July heating degree days 5322 4786  
Cooling Degree Days 0 1  
Month to date cooling degree days 0 3  
Year to date cooling degree days 36 28  
Growing Degree Days 15 (Base 50)    
Moisture  
Dew Point 41 °F    
Average Humidity 46    
Maximum Humidity 71    
Minimum Humidity 21    
Precipitation  
Precipitation 0.00 in 0.13 in 0.90 in (1990)
Month to date precipitation 0.00 0.37  
Year to date precipitation 3.44 7.61  
Sea Level Pressure  
Sea Level Pressure 29.86 in    
Wind  
Wind Speed 9 mph (ENE)    
Max Wind Speed 16 mph    
Max Gust Speed 20 mph    
Visibility 10 miles    
Events      
T = Trace of Precipitation, MM = Missing Value Source: NWS Daily Summary

Daily Weather History Graph

Daily Weather History Graph

Search for Another Location

Airport or City:

Trip Planner

Search our weather history database for the weather conditions in past years. The results will help you decide how hot, cold, wet, or windy it might be!

Date:

Astronomy

May. 03, 2014 Rise Set
Actual Time 6:30 AM CDT 8:24 PM CDT
Civil Twilight 6:01 AM CDT 8:53 PM CDT
Nautical Twilight 5:26 AM CDT 9:29 PM CDT
Astronomical Twilight 4:48 AM CDT 10:07 PM CDT
Moon 10:01 AM CDT (5/3) No Moon Set
Length of Visible Light 14h 52m
Length of Day
13h 54m
Waxing Crescent, 20% of the Moon is Illuminated
May 3
Waxing Crescent
May 6
First Quarter
May 14
Full
May 21
Last Quarter
May 28
New

Hourly Weather History & Observations

Time (CDT) Temp. Windchill Dew Point Humidity Pressure Visibility Wind Dir Wind Speed Gust Speed Precip Events Conditions
12:53 AM 52.0 °F - 36.0 °F 54% 29.83 in 10.0 mi South 9.2 mph - N/A   Clear
1:53 AM 50.0 °F - 35.1 °F 57% 29.82 in 10.0 mi South 6.9 mph - N/A   Clear
2:53 AM 51.1 °F - 35.1 °F 54% 29.87 in 10.0 mi North 13.8 mph - N/A   Clear
3:53 AM 52.0 °F - 36.0 °F 54% 29.87 in 10.0 mi WSW 3.5 mph - N/A   Clear
4:53 AM 50.0 °F - 35.6 °F 58% 29.89 in 10.0 mi North 5.8 mph - N/A   Clear
5:53 AM 46.0 °F 43.9 °F 37.0 °F 71% 29.88 in 10.0 mi NNW 4.6 mph - N/A   Clear
6:53 AM 44.1 °F 41.5 °F 36.0 °F 73% 29.91 in 10.0 mi North 4.6 mph - N/A   Clear
7:53 AM 53.1 °F - 42.1 °F 66% 29.91 in 10.0 mi North 3.5 mph - N/A   Clear
8:53 AM 61.0 °F - 42.1 °F 50% 29.92 in 10.0 mi ENE 11.5 mph - N/A   Scattered Clouds
9:53 AM 64.0 °F - 39.9 °F 41% 29.92 in 10.0 mi East 12.7 mph - N/A   Clear
10:53 AM 68.0 °F - 39.9 °F 36% 29.91 in 10.0 mi ENE 13.8 mph - N/A   Clear
11:53 AM 71.1 °F - 43.0 °F 36% 29.93 in 10.0 mi ESE 9.2 mph - N/A   Clear
12:53 PM 73.9 °F - 42.1 °F 32% 29.91 in 10.0 mi Variable 5.8 mph - N/A   Clear
1:53 PM 77.0 °F - 43.0 °F 30% 29.88 in 10.0 mi ESE 10.4 mph - N/A   Clear
2:53 PM 80.1 °F - 42.1 °F 26% 29.86 in 10.0 mi East 11.5 mph - N/A   Clear
3:53 PM 82.9 °F - 41.0 °F 23% 29.84 in 10.0 mi Variable 5.8 mph - N/A   Clear
4:53 PM 84.9 °F - 42.1 °F 22% 29.81 in 10.0 mi SE 9.2 mph - N/A   Clear
5:53 PM 86.0 °F - 41.0 °F 20% 29.79 in 10.0 mi ESE 6.9 mph - N/A   Clear
6:53 PM 82.9 °F - 45.0 °F 26% 29.79 in 8.0 mi NE 12.7 mph - N/A   Clear
7:53 PM 78.1 °F - 44.1 °F 30% 29.78 in 7.0 mi NE 10.4 mph - N/A   Clear
8:53 PM 75.0 °F - 46.0 °F 36% 29.79 in 10.0 mi ENE 10.4 mph - N/A   Clear
9:53 PM 71.1 °F - 46.0 °F 41% 29.81 in 10.0 mi ENE 9.2 mph - N/A   Clear
10:53 PM 71.1 °F - 44.1 °F 38% 29.83 in 10.0 mi ENE 11.5 mph - N/A   Clear
11:53 PM 66.0 °F - 46.0 °F 48% 29.82 in 10.0 mi East 6.9 mph - N/A   Clear